This is the latest recevied weather packets stored in our database for station/object KF4LQQ-13. If no packets are shown the sender has not sent any weather packets the latest 10 day(s).
| Time | Temp. | Humidity | Pressure | Rain* | Wind** | Luminosity | Snow |
|---|---|---|---|---|---|---|---|
| 1777750384 | 27.78° C | - | 1008.7 hPa | 0 mm | - | - | - |
| 1777749783 | 27.78° C | - | 1008.7 hPa | 0 mm | - | - | - |
| 1777749183 | 27.78° C | - | 1008.7 hPa | 0 mm | - | - | - |
| 1777748583 | 27.78° C | - | 1008.8 hPa | 0 mm | - | - | - |
| 1777747980 | 27.78° C | - | 1008.8 hPa | 0 mm | - | - | - |
| 1777747378 | 28.33° C | - | 1008.9 hPa | 0 mm | - | - | - |
| 1777746778 | 28.33° C | - | 1009 hPa | 0 mm | - | - | - |
| 1777746177 | 28.89° C | - | 1008.9 hPa | 0 mm | - | - | - |
| 1777745577 | 29.44° C | - | 1009.2 hPa | 0 mm | - | - | - |
| 1777744977 | 29.44° C | - | 1009.5 hPa | 0 mm | - | - | - |
| 1777744597 | 28.89° C | - | 1009.4 hPa | 0 mm | - | - | - |
| 1777744375 | 28.89° C | - | 1009.4 hPa | 0 mm | - | - | - |
| 1777743775 | 29.44° C | - | 1009.3 hPa | 0 mm | - | - | - |
| 1777743175 | 28.89° C | - | 1009.2 hPa | 0 mm | - | - | - |
| 1777742574 | 28.33° C | - | 1009.4 hPa | 0 mm | - | - | - |
| 1777741974 | 28.89° C | - | 1009.5 hPa | 0 mm | - | - | - |
| 1777741374 | 28.33° C | - | 1009.6 hPa | 0 mm | - | - | - |
| 1777740774 | 28.33° C | - | 1009.5 hPa | 0 mm | - | - | - |
| 1777739573 | 28.33° C | - | 1009.7 hPa | 0 mm | - | - | - |
| 1777738973 | 28.33° C | - | 1009.8 hPa | 0 mm | - | - | - |
| 1777738373 | 28.33° C | - | 1009.8 hPa | 0 mm | - | - | - |
| 1777737772 | 28.33° C | - | 1010 hPa | 0 mm | - | - | - |
| 1777737225 | 28.33° C | - | 1009.9 hPa | 0 mm | - | - | - |
| 1777737172 | 28.33° C | - | 1009.9 hPa | 0 mm | - | - | - |
| 1777736572 | 28.89° C | - | 1009.6 hPa | 0 mm | - | - | - |
* Rain since midnight (hover to see other rain measurements)
** Current wind speed in m/s (hover to see current wind gust speed)